Regional Weather Roundup
Issued by NWS Portland, ME

Current Version | Previous Version | Text Only | Print | Product List | Glossary Off
Versions: 1 2 3 4 5 6 7 8 9 10 11 12 13 14 15 16 17 18 19 20 21 22 23 24 25 26 27 28 29 30 31 32 33 34 35 36 37 38 39 40 41 42 43 44 45 46 47 48 49 50
000 ASUS41 KGYX 191610 RWRGYX WEATHER ROUNDUP FOR MAINE AND NEW HAMPSHIRE NATIONAL WEATHER SERVICE GRAY ME 1200 PM EDT SAT MAY 19 2018 MEZ002-005-006-010-012-015-018-020-021-024-026-027-029-191700- MAINE CITY SKY/WX TMP DP RH WIND PRES REMARKS PORTLAND PTSUNNY 55 40 56 E12 30.43S SANFORD FAIR 59 33 37 VRB7G16 30.40F BAR HARBOR FAIR 59 32 36 S10 30.44F WISCASSET FAIR 57 33 40 SW9 30.44F ROCKLAND FAIR 53 33 46 SE9 30.44F FRYEBURG FAIR 61 28 28 MISG 30.38F LEWISTONAUBURN FAIR 58 35 42 SE12 30.40F AUGUSTA FAIR 60 30 32 S10G18 30.40F WATERVILLE FAIR 62 31 31 VRB6 30.36F BANGOR PTSUNNY 62 28 27 S13G23 30.40F GREENVILLE N/A 63 27 25 S12G20 30.32F MILLINOCKET FAIR 65 29 25 S13G21 30.37F HOULTON FAIR 67 31 26 S14G20 30.34F PRESQUE ISLE FAIR 66 30 26 S13G20 30.31F FRENCHVILLE FAIR 66 26 22 S12G18 30.29F CARIBOU FAIR 67 30 25 S10G20 30.30F $$ NHZ002-005-008-009-011-012-014-191700- NEW HAMPSHIRE CITY SKY/WX TMP DP RH WIND PRES REMARKS PORTSMOUTH PTSUNNY 55 38 52 SE15 30.39F ROCHESTER FAIR 60 36 40 SE13 30.38F NASHUA CLOUDY 61 38 42 SE10 30.37F MANCHESTER CLOUDY 63 37 38 S10 30.35F CONCORD PTSUNNY 60 35 39 SE12 30.37F LACONIA FAIR 60 31 33 VRB6 30.36F PLYMOUTH FAIR 60 25 25 E8 30.35F BERLIN FAIR 63 23 21 SE14 30.31F WHITEFIELD FAIR 64 23 21 SE14 30.29F JAFFREY CLOUDY 56 38 50 VRB7 30.36F KEENE CLOUDY 60 35 39 VRB6 30.34F LEBANON PTSUNNY 61 29 29 VRB6 30.32F MT WASHINGTON PTSUNNY 45 -4 13 S15G23 N/A $$ VTZ005-007-008-191700- VERMONT CITY SKY/WX TMP DP RH WIND PRES REMARKS ST JOHNSBURY N/A 61 22 22 MISG 30.28F MONTPELIER FAIR 59 22 24 S15 30.32F BURLINGTON CLOUDY 64 34 32 S9 30.22F $$ MAZ007-012-024-CTZ003-RIZ002-NYZ038-NYZ072-191700- SOUTHERN NEW ENGLAND AND NY CITY SKY/WX TMP DP RH WIND PRES REMARKS BOSTON CLOUDY 53 46 77 E12 30.39F WORCESTER LGT RAIN 53 46 77 E5 30.35F NANTUCKET CLOUDY 54 51 90 E17G24 30.34F PROVIDENCE LGT RAIN 56 51 84 E9 30.36F HARTFORD LGT RAIN 51 49 92 NE7 30.33F ALBANY LGT RAIN 50 46 86 S8 30.29F NEW YORK CITY LGT RAIN 53 51 93 NE13 30.27F FOG $$ ANZ081-ANZ082-ANZ150-NHZ014-MEZ023>029-191700- COASTAL MARINE OBSERVATIONS STATION/POSITION TIME TEMP WIND PRES WAVE AIR SEA DIR/SP/G HT/PER (UTC) (F) (DEG/KT/KT) (MB) (FT/S) MOUNT DESERT ROC 1600 47 90/ 9/ 9 1031.2F MATINICUS ROCK 1600 51 110/ 10/ 11 1030.4F ISLE OF SHOALS 1600 50 90/ 10/ 11 1029.2F JEFFREYS LEDGE 1506 50 N/A 2/ 6 CASHES LEDGE BUO 1550 51 48 1030.5F 3/ 6 $$ .............KEY.............. WCI - WIND CHILL TC - TEMPERATURE IN CELSIUS VSB - VISIBILITY IN MILES HX - HEAT INDEX FAIR- INDICATES FEW OR NO CLOUDS BELOW 12,000 FT, WITH NO SIGNIFICANT WEATHER AND/OR OBSTRUCTIONS TO VISIBILITY.

USA.gov is the U.S. government's official web portal to all federal, state and local government web resources and services.